sat.trackr.live / text

‹ back to catalog

2024-203C

NORAD 61871 · 2024-203C

PAYLOAD ACTIVE UNKNOWN

§ Identity

Operator
Country
PRC
Launch date
2024-11-09
Launch site
JSC
Launch vehicle
Mass (kg)
RCS (m²)

External: N2YO · Heavens-Above · Gunter

§ Orbital elements

Epoch: 2026-09-22T22:47:22.141248Z

Period
94.35 min
Inclination
97.4156°
Eccentricity
0.0010788
Mean motion
15.26312950 rev/d
Perigee alt
479.4 km
Apogee alt
494.3 km
Semi-major
6,865.0 km
B*
3.2482e-4
RAAN
334.4451°
Arg perigee
8.3476°
Mean anomaly
351.7940°
Rev number
10,377

§ Raw data

2024-203C1 61871U 24203C   26265.94956182  .00008373  00000+0  32482-3 0  99912 61871  97.4156 334.4451 0010788   8.3476 351.7940 15.26312950103774

JSON: /api/v1/satellites/61871 · /tle

For live sub-satellite position, see the globe view (requires WebGL).

§ Visibility from observer

Set your observer location to see the next 7 days of passes ≥ 10°. The values pass through the URL so the page stays shareable.

No JS? Fill the form by hand. The geolocation button needs JavaScript.